Location: La Barchessa
(44.9667°N, 11.8167°E)
Time: 01:06:23
(UTC+00:00)

Daily predictions for brighter satellites

Satellite Brightness Start Highest point End
(mag) Time Altitude Azimuth Time Altitude Azimuth Time Altitude Azimuth
ATLAS CENTAUR R/B 4.0 00:03:40 10° NNW 00:05:41 20° NE 00:08:57 10° E
Nadezhda 2 Rocket 4.4 00:04:33 47° S 00:06:28 88° W 00:12:37 10° N
GEOS 3 Rocket 3.5 00:07:39 43° SSE 00:09:25 81° SW 00:14:44 10° NW
Cosmos 1726 4.1 00:08:55 10° NW 00:10:54 19° WNW 00:10:54 19° WNW
Cosmos 2058 Rocket 3.0 00:08:40 10° N 00:13:06 81° E 00:13:46 63° SSE
COSMOS 2455 2.8 00:11:40 45° SW 00:13:38 86° WNW 00:19:42 10° NNE
Meteor 1-29 3.4 00:10:36 10° N 00:13:32 54° NW 00:13:32 54° NW
Cosmos 2228 3.4 00:11:27 10° NNW 00:15:32 48° W 00:15:32 48° W
SJ 16-02 3.9 00:13:38 10° NNE 00:16:42 18° ENE 00:19:47 10° E
SL-14 R/B 3.1 00:18:39 78° ESE 00:18:44 79° E 00:22:37 10° N
IRAS Rocket 4.2 00:17:53 44° S 00:19:44 81° WSW 00:25:20 10° NNW
Cosmos 1953 4.4 00:17:24 10° NW 00:19:26 16° WNW 00:19:26 16° WNW
Okean 1-7 Rocket 3.5 00:22:03 64° SSW 00:22:41 80° W 00:27:12 10° N
Cosmos 1174 3.8 00:23:33 57° NNW 00:23:33 57° NNW 00:26:49 10° NNE
Cosmos 921 Rocket 3.2 00:23:34 52° SE 00:24:06 56° ESE 00:28:19 10° NNE
Cosmos 1300 2.6 00:21:01 10° N 00:24:51 79° E 00:25:04 75° SE
BREEZE M DEB (TANK) 3.3 00:26:49 38° NNE 00:26:49 38° NNE 00:29:48 10° E
COSMOS 2487 4.1 00:25:22 10° NW 00:27:18 25° WNW 00:27:18 25° WNW
Meteor 2-16 Rocket 4.4 00:27:43 39° S 00:30:09 82° E 00:36:19 10° N
Cosmos 1626 Rocket 4.0 00:29:36 42° SE 00:30:35 52° E 00:34:48 10° NNE
SAR-Lupe-3 4.4 00:29:45 10° NNE 00:33:20 85° ESE 00:33:22 84° SE
Cosmos 2219 4.2 00:28:14 10° NNW 00:33:41 46° ENE 00:39:04 10° SE
Cosmos 1626 2.2 00:34:31 62° W 00:34:32 62° W 00:38:15 10° N
STARLINK-60 3.4 00:36:27 60° N 00:36:27 60° N 00:39:26 10° NE
FALCON 9 R/B 3.5 00:38:25 33° SW 00:41:26 46° SSE 01:01:18 10° ESE
Nadezhda 1 Rocket 4.0 00:36:16 10° N 00:42:28 83° E 00:45:52 29° SSE
MOZ.5/SAFIR/RUBIN 5/SL-8 3.6 00:44:15 43° S 00:45:48 86° W 00:50:27 10° NNW
UNK 3.9 00:44:00 32° SSE 00:46:05 71° ENE 00:50:40 10° N
Cosmos 220 Rocket 4.0 00:46:16 51° S 00:47:17 75° ESE 00:51:44 10° NNE
Cosmos 2297 Rocket 3.1 00:43:53 10° NNW 00:49:22 49° ENE 00:54:49 10° SE
SL-4 R/B 2.5 00:49:12 32° WSW 00:51:23 72° NNW 00:56:07 10° ENE
Cosmos 1812 Rocket 4.0 00:47:52 10° N 00:52:19 61° E 00:54:30 28° SSE
Cosmos 1437 3.0 00:52:48 52° NW 00:52:48 52° NW 00:55:24 10° N
CZ-4B R/B 4.0 00:47:43 10° NNE 00:52:46 53° E 00:55:16 29° SSE
ATLAS CENTAUR R/B 2.4 00:56:56 28° W 00:58:33 39° NW 01:02:29 10° NNE
STARLINK-1375 4.5 00:59:43 28° SE 00:59:43 28° SE 01:02:32 10° ENE
SL-16 R/B 2.4 00:56:01 25° S 00:59:48 82° WSW 01:06:01 10° NNW
Cosmos 1777 Rocket 4.5 00:55:51 10° NW 01:00:44 41° WSW 01:01:54 36° SW
Timation 2 Rocket 4.0 00:55:03 10° NNW 01:01:16 60° WSW 01:04:30 28° S
NOSS 3-4 (A) 4.5 00:57:31 16° W 01:01:47 39° NW 01:07:47 10° NNE
STARLINK-1350 4.3 01:01:59 30° SE 01:01:59 30° SE 01:04:56 10° ENE
NOSS 3-4 (C) 4.5 00:57:37 17° W 01:01:53 39° NW 01:07:54 10° NNE
FALCON 9 DEB 3.0 01:02:08 67° SSE 01:02:17 69° SE 01:05:44 10° ENE
BREEZE-M R/B 2.7 01:01:07 43° SW 01:02:24 73° SSE 01:05:27 10° ENE
Cosmos 1602 Rocket 3.4 01:01:58 44° S 01:03:19 90° WNW 01:07:40 10° N
OE (NEXTSAT) 4.2 01:03:39 67° WSW 01:04:03 83° SSE 01:07:33 10° ENE
STARLINK-1352 4.2 01:04:09 31° SE 01:04:09 31° SE 01:07:16 10° ENE
STARLINK-29 3.0 01:04:34 62° WNW 01:04:54 69° NNW 01:08:06 10° NE
STARLINK-1368 4.2 01:06:14 33° SE 01:06:16 33° SE 01:09:28 10° ENE
Cosmos 1455 3.0 01:03:38 10° N 01:07:16 47° ENE 01:09:23 22° SE
STARLINK-1369 4.1 01:08:12 34° SE 01:08:17 34° SE 01:11:30 10° ENE
ATLAS 3B R/B 2.9 01:02:06 10° NW 01:08:36 48° WSW 01:12:43 23° S
BREEZE-M DEB (TANK) 3.4 01:09:30 23° E 01:09:30 23° E 01:10:42 10° ENE
STARLINK-1372 4.0 01:10:25 35° SE 01:10:36 36° SE 01:13:52 10° ENE
IRS-1D 4.1 01:06:45 10° NNE 01:12:00 53° E 01:15:16 22° S
CENTAUR R/B 4.1 01:05:31 10° NW 01:12:16 28° WSW 01:14:47 24° SW
STARLINK-1378 3.9 01:12:32 37° SSE 01:12:48 37° SE 01:16:06 10° ENE
STARLINK-1329 3.9 01:12:59 37° SSE 01:13:17 38° SE 01:16:36 10° ENE
GP-B 3.6 01:09:07 10° N 01:13:31 57° E 01:16:10 22° SSE
BREEZE-M DEB (TANK) 2.4 01:12:39 27° WNW 01:13:32 37° NNW 01:15:45 10° ENE
STARLINK-1365 3.8 01:13:46 39° SSE 01:14:06 40° SE 01:17:27 10° ENE
Meteor 2-1 Rocket 4.1 01:09:09 10° NNW 01:14:41 78° W 01:18:03 24° S
STARLINK-1379 3.8 01:14:39 38° SSE 01:15:00 39° SE 01:18:20 10° ENE
STARLINK-1362 3.8 01:15:10 38° SSE 01:15:33 40° SE 01:18:53 10° ENE
Cosmos 1745 Rocket 4.2 01:12:45 30° SW 01:15:47 58° WNW 01:21:51 10° N
Cosmos-2242 3.9 01:12:46 10° N 01:16:54 46° ENE 01:20:32 13° SSE
STARLINK-1373 3.8 01:17:22 39° SSE 01:17:49 41° SE 01:21:12 10° ENE
STARLINK-1205 4.5 01:15:49 10° NW 01:19:53 51° NNE 01:23:56 10° ESE
STARLINK-1390 3.7 01:19:27 40° SSE 01:19:59 43° SE 01:23:22 10° ENE
RESURS DK-1 3.3 01:19:17 27° W 01:20:51 37° NW 01:24:43 10° NNE
Cosmos 2181 Rocket 4.3 01:17:12 10° N 01:23:37 69° E 01:30:01 10° SSE
Cosmos 1356 Rocket 4.1 01:21:01 10° NNW 01:24:51 38° W 01:25:49 33° SW
STARLINK-1218 4.4 01:20:47 10° NW 01:24:52 54° NNE 01:28:56 10° ESE
Cosmos 2227 Rocket 2.3 01:19:20 10° NNW 01:25:03 78° ENE 01:30:43 10° SSE
Cosmos 1763 Rocket 3.9 01:23:45 23° S 01:26:49 56° ESE 01:31:48 10° NNE
Cosmos 1697 Rocket 3.6 01:23:11 17° S 01:27:03 42° ESE 01:32:21 10° NE
CZ-2D R/B 2.3 01:22:20 10° N 01:27:31 59° WNW 01:30:15 27° SW
Cosmos 1703 3.7 01:26:48 25° SSE 01:28:56 59° E 01:32:50 10° NNE
STARLINK-1254 4.2 01:25:46 10° NW 01:29:52 58° NNE 01:33:58 10° ESE
ADEOS II 2.5 01:25:04 10° NNE 01:30:17 60° E 01:34:07 18° S
ATLAS 2AS CENTAUR R/B 4.2 01:23:49 10° W 01:31:02 35° NW 01:38:08 10° NNE
CZ-4C R/B 4.4 01:30:46 28° WSW 01:31:34 30° W 01:35:23 10° NNW
STARLINK-1231 4.1 01:30:46 10° NW 01:34:52 62° NNE 01:38:59 10° ESE
STARLINK-1228 3.3 01:33:20 10° WNW 01:36:32 44° SW 01:39:43 10° SSE
Resurs 1-4 Rocket 2.6 01:32:10 10° N 01:37:14 48° WNW 01:40:11 24° SW
STARLINK-1234 3.5 01:34:45 10° WNW 01:41:18 - SE 01:37:02 36° WSW
STARLINK-1212 2.8 01:36:04 10° WNW 01:39:08 58° SW 01:42:11 10° SE
USA 81 4.3 01:36:20 26° SSW 01:39:13 56° W 01:44:26 10° N
STARLINK-1105 2.8 01:36:32 10° WNW 01:39:36 58° SW 01:42:38 10° SE
STARLINK-1232 4.0 01:35:44 10° NW 01:39:52 66° NNE 01:44:00 10° ESE
STARLINK-1209 4.2 01:37:02 10° WNW 01:44:33 - SE 01:38:42 25° W
STARLINK-1247 2.8 01:37:27 10° WNW 01:40:32 57° SW 01:43:35 10° SE
STARLINK-1227 2.8 01:37:55 10° WNW 01:40:58 56° SW 01:43:59 10° SE
STARLINK-52 3.9 01:39:41 21° W 01:41:24 42° NNW 01:44:30 10° NE
Cosmos 1758 Rocket 3.5 01:39:23 27° SSW 01:41:43 75° W 01:46:05 10° N
STARLINK-1226 2.8 01:38:46 10° WNW 01:41:49 55° SW 01:44:53 10° SE
ARIANE 5 R/B 3.3 01:37:29 10° NNE 01:42:23 47° E 01:46:55 12° S
STARLINK-1215 2.9 01:39:42 10° WNW 01:42:46 54° SW 01:45:49 10° SE
H-2A R/B 3.7 01:40:15 10° SE 01:44:08 34° ENE 01:48:09 10° N
STARLINK-1217 2.9 01:41:29 10° WNW 01:44:32 52° SW 01:47:34 10° SE
NPP 4.1 01:39:29 10° N 01:44:41 49° WNW 01:47:57 22° SW
STARLINK-1208 3.9 01:40:41 10° NW 01:44:50 71° NNE 01:48:58 10° ESE
STARLINK-1229 2.9 01:42:24 10° WNW 01:45:28 51° SW 01:48:29 10° SE
STARLINK-1270 2.9 01:43:16 10° WNW 01:46:19 50° SW 01:49:21 10° SE
STARLINK-1189 3.0 01:45:07 10° WNW 01:48:09 48° SW 01:51:10 10° SE
STARLINK-1188 3.0 01:46:00 10° WNW 01:49:02 47° SW 01:52:02 10° SE
STARLINK-1235 3.4 01:46:46 10° WNW 01:49:39 35° SW 01:52:31 10° SSE
STARLINK-1271 3.8 01:45:41 10° NW 01:49:50 76° NNE 01:53:59 10° ESE
STARLINK-1187 3.2 01:47:10 10° WNW 01:50:05 40° SW 01:53:01 10° SSE
Cosmos 1898 Rocket 3.5 01:44:50 10° NNW 01:50:11 76° WSW 01:55:29 10° SSE
Meteor 1-21 Rocket 4.5 01:46:49 22° SW 01:50:18 55° WNW 01:55:53 10° N
STARLINK-1191 3.1 01:48:30 10° WNW 01:51:29 44° SW 01:54:26 10° SE
Lacrosse 4 Rocket 3.0 01:47:50 10° NNW 01:51:58 39° NE 01:55:57 10° ESE
Cosmos 1656 3.8 01:48:20 22° SW 01:52:07 72° WNW 01:57:46 10° NNE
STARLINK-1221 3.1 01:49:22 10° WNW 01:52:21 43° SW 01:55:19 10° SE
STARLINK-1222 3.1 01:50:16 10° WNW 01:53:14 42° SW 01:56:12 10° SSE
CZ-4C R/B 2.4 01:50:43 20° SSW 01:54:08 59° ESE 01:59:51 10° NE
STARLINK-1214 3.1 01:51:11 10° WNW 01:54:08 41° SW 01:57:05 10° SSE
STARLINK-1154 3.7 01:50:40 10° NW 01:54:49 81° NNE 01:58:58 10° ESE
Cosmos 2084 4.4 01:52:18 18° WSW 01:55:16 40° NW 01:59:30 10° NNE
SJ 16-02 1.5 01:51:18 10° NNW 01:55:37 52° WSW 01:59:17 14° S
IDEFIX/ARIANE 42P 4.1 01:50:58 10° NNE 01:55:43 33° E 02:00:26 10° SSE
Cosmos 2285 Rocket 4.1 01:49:18 10° NNW 01:55:44 82° ENE 02:02:04 10° SSE
Cosmos 468 Rocket 4.0 01:52:22 21° SSW 01:55:44 69° WNW 02:00:53 10° NNE
Cosmos 1570 Rocket 4.3 01:53:01 16° S 01:57:19 66° ESE 02:02:36 10° NNE
Cosmos 1953 Rocket 3.6 01:54:38 17° S 01:58:00 90° S 02:02:30 10° N
STARLINK-1197 3.6 01:55:38 10° WNW 01:59:48 87° NNE 02:03:57 10° ESE
Cosmos 2208 Rocket 4.5 01:55:43 13° S 02:00:13 58° ESE 02:05:25 10° NNE
Cosmos 2369 3.8 01:55:55 16° SSW 02:00:23 72° ESE 02:06:02 10° NNE
Cosmos 1937 Rocket 3.5 01:55:12 10° NNW 02:00:27 85° WSW 02:05:44 10° SSE
NOSS 7 (H) 4.1 01:59:32 25° SW 02:01:15 88° SE 02:04:13 10° NE
Meteor 2-10 Rocket 4.0 01:57:23 10° NNW 02:02:23 41° W 02:06:01 16° SSW
STARLINK-1198 3.5 02:00:35 10° WNW 02:04:45 87° SW 02:08:54 10° SE
Cosmos 1709 Rocket 4.5 02:01:47 18° SW 02:06:01 43° WNW 02:11:51 10° N
STARLINK-1199 3.5 02:05:37 10° WNW 02:09:46 81° SW 02:13:54 10° SE
Iridium 2 4.3 02:08:01 10° N 02:11:44 57° E 02:15:26 10° SSE
USA 129 4.1 02:12:56 10° ENE 02:13:49 12° E 02:14:36 10° ESE
STARLINK-1210 3.5 02:10:35 10° WNW 02:14:43 75° SW 02:18:51 10° SE
Cosmos 1814 Rocket 4.3 02:11:06 11° S 02:16:10 72° ESE 02:21:30 10° NNE
STARLINK-1320 3.4 02:14:52 16° WSW 02:17:09 54° NNW 02:20:13 10° NE
STARLINK-1322 3.4 02:15:11 16° WSW 02:17:29 54° NNW 02:20:34 10° NE
Cosmos 2219 4.1 02:12:48 10° NW 02:17:36 29° WSW 02:22:14 11° SSW
STARLINK-1324 3.4 02:15:32 16° WSW 02:17:51 53° NNW 02:20:55 10° NE
STARLINK-1294 3.4 02:15:47 16° WSW 02:18:08 53° NNW 02:21:14 10° NE
STARLINK-1261 3.4 02:16:09 16° WSW 02:18:30 53° NNW 02:21:34 10° NE
STARLINK-1325 3.4 02:16:30 15° WSW 02:18:52 52° NNW 02:21:56 10° NE
STARLINK-1333 3.4 02:16:48 15° WSW 02:19:10 52° NNW 02:22:14 10° NE
Cosmos 1980 Rocket 2.6 02:13:48 10° S 02:19:17 59° ESE 02:24:49 10° NNE
STARLINK-1334 3.4 02:17:07 15° WSW 02:19:30 52° NNW 02:22:35 10° NE
STARLINK-1219 3.5 02:15:34 10° WNW 02:19:41 69° SW 02:23:48 10° SE
STARLINK-1326 3.4 02:17:28 15° WSW 02:19:52 51° NNW 02:22:56 10° NE
STARLINK-1323 3.5 02:17:47 15° WSW 02:20:12 51° NNW 02:23:15 10° NE
STARLINK-1338 3.5 02:17:39 15° WSW 02:20:24 60° NNW 02:23:51 10° NE
STARLINK-1349 3.5 02:18:06 15° WSW 02:20:31 51° NNW 02:23:35 10° NE
STARLINK-1336 3.5 02:18:28 15° WSW 02:20:54 51° NNW 02:23:57 10° NE
STARLINK-1331 3.5 02:18:45 14° WSW 02:21:13 50° NNW 02:24:16 10° NE
STARLINK-1344 3.5 02:19:05 14° WSW 02:21:33 50° NNW 02:24:37 10° NE
CZ-4B R/B 4.3 02:19:37 10° ESE 02:21:34 16° ENE 02:23:31 10° NNE
STARLINK-1343 3.5 02:19:25 14° WSW 02:21:54 50° NNW 02:24:57 10° NE
STARLINK-1346 3.5 02:19:43 14° WSW 02:22:14 50° NNW 02:25:20 10° NE
STARLINK-1328 3.5 02:20:05 14° WSW 02:22:35 49° NNW 02:25:39 10° NE
STARLINK-1354 3.5 02:20:22 14° WSW 02:22:54 49° NNW 02:25:56 10° NE
STARLINK-1347 3.5 02:20:44 14° WSW 02:23:16 49° NNW 02:26:19 10° NE
STARLINK-1357 3.6 02:21:02 14° WSW 02:23:34 48° NNW 02:26:37 10° NE
ERS-2 2.1 02:20:09 10° S 02:23:47 64° WSW 02:27:26 10° NNW
STARLINK-1335 3.6 02:21:22 13° W 02:23:55 48° NNW 02:26:58 10° NE
STARLINK-1327 3.6 02:21:41 13° W 02:24:15 48° NNW 02:27:18 10° NE
STARLINK-1371 3.6 02:21:31 13° WSW 02:24:27 57° NNW 02:27:55 10° NE
STARLINK-1340 3.6 02:22:01 13° W 02:24:37 48° NNW 02:27:39 10° NE
STARLINK-1211 3.6 02:20:32 10° WNW 02:24:39 64° SW 02:28:44 10° SE
STARLINK-1356 3.6 02:22:21 13° W 02:24:57 47° NNW 02:27:59 10° NE
STARLINK-1345 3.6 02:22:41 13° W 02:25:17 47° NNW 02:28:20 10° NE
STARLINK-1355 3.6 02:22:59 13° W 02:25:37 47° NNW 02:28:39 10° NE
STARLINK-1321 3.6 02:23:18 13° W 02:25:56 46° NNW 02:28:59 10° NE
STARLINK-1358 3.6 02:23:39 13° W 02:26:19 46° NNW 02:29:21 10° NE
STARLINK-1341 3.7 02:23:29 13° WSW 02:26:30 55° NNW 02:29:57 10° NE
STARLINK-1332 3.6 02:23:57 12° W 02:26:38 46° NNW 02:29:40 10° NE
STARLINK-1348 3.7 02:24:18 12° W 02:26:59 46° NNW 02:30:01 10° NE
STARLINK-1330 3.7 02:24:36 12° W 02:27:19 45° NNW 02:30:20 10° NE
STARLINK-1363 3.7 02:24:56 12° W 02:27:38 45° NNW 02:30:40 10° NE
STARLINK-1337 3.7 02:25:15 12° W 02:27:59 45° NNW 02:31:01 10° NE
STARLINK-1342 3.7 02:25:35 12° W 02:28:19 45° NNW 02:31:21 10° NE
IRS-1C 4.4 02:23:15 10° N 02:28:26 53° WNW 02:33:25 11° SW
STARLINK-1374 3.7 02:25:26 12° WSW 02:28:33 53° NNW 02:32:01 10° NE
STARLINK-1364 3.7 02:25:55 12° W 02:28:40 45° NNW 02:31:42 10° NE
STARLINK-1376 3.7 02:26:15 12° W 02:29:01 44° NNW 02:32:03 10° NE
STARLINK-1360 3.7 02:26:30 12° W 02:29:17 44° NNW 02:32:19 10° NE
STARLINK-1245 3.6 02:25:33 10° WNW 02:29:38 58° SW 02:33:42 10° SE
STARLINK-1361 3.7 02:26:56 11° W 02:29:44 44° NNW 02:32:45 10° NE
STARLINK-1367 3.7 02:27:10 11° W 02:30:00 44° NNW 02:33:04 10° NE
STARLINK-1366 3.7 02:27:33 11° W 02:30:22 43° NNW 02:33:23 10° NE
STARLINK-1339 3.8 02:27:27 11° WSW 02:30:38 52° NNW 02:34:05 10° NE
SL-4 R/B 3.7 02:27:10 10° WNW 02:31:39 37° N 02:35:55 10° ENE
STARLINK-1377 3.8 02:29:28 11° WSW 02:32:44 50° NNW 02:36:11 10° NE
Cosmos 2297 Rocket 3.1 02:28:27 10° NW 02:33:07 27° WSW 02:37:46 10° SSW
STARLINK-1233 3.7 02:30:32 10° WNW 02:34:35 53° SW 02:38:37 10° SE
STARLINK-1353 3.8 02:31:17 10° WSW 02:34:37 49° NNW 02:38:00 10° NE
STARLINK-1375 3.9 02:33:06 10° WSW 02:36:29 47° NNW 02:39:52 10° NE
Cosmos 2082 3.9 02:31:37 10° NW 02:37:04 50° WSW 02:42:27 10° S
Cosmos 540 Rocket 3.5 02:32:22 10° SSW 02:37:26 71° WNW 02:42:35 10° NNE
STARLINK-1350 4.0 02:35:31 10° W 02:38:52 46° NNW 02:42:15 10° NE
STARLINK-1204 3.8 02:35:33 10° WNW 02:39:34 49° SW 02:43:33 10° SE
Landsat 5 3.6 02:36:08 10° SSE 02:40:38 83° WSW 02:45:11 10° NNW
STARLINK-1352 4.0 02:37:55 10° W 02:41:19 45° NNW 02:44:44 10° NE
Cosmos 2278 3.7 02:36:17 10° SSW 02:41:56 79° WNW 02:47:38 10° NNE
Cosmos 1455 4.2 02:40:55 10° WNW 02:42:26 12° W 02:43:56 10° WSW
CZ-2D R/B 3.6 02:38:48 10° N 02:42:52 63° WNW 02:47:01 10° SSW
STARLINK-1368 4.1 02:40:07 10° W 02:43:30 43° NNW 02:46:54 10° NE
Meteor 1-28 Rocket 3.7 02:40:07 10° SSW 02:43:41 39° W 02:47:16 10° NNW
USA 234 3.7 02:37:29 10° ENE 02:43:54 56° SE 02:50:18 10° SSW
SL-16 R/B 4.3 02:41:37 10° WSW 02:44:19 13° W 02:47:02 10° WNW
STARLINK-1238 3.9 02:40:31 10° WNW 02:44:30 45° SW 02:48:26 10° SSE
STARLINK-1369 4.1 02:42:05 10° W 02:45:25 42° NNW 02:48:47 10° NE
STARLINK-1239 4.4 02:42:44 10° NW 02:46:50 57° NNE 02:50:55 10° ESE
Cosmos 2074 Rocket 4.3 02:41:09 10° SSW 02:47:16 53° WNW 02:53:26 10° N
IRIDIUM 106 4.3 02:42:36 10° S 02:47:49 83° W 02:53:04 10° N
STARLINK-1372 4.2 02:44:33 10° W 02:47:54 41° NNW 02:51:17 10° NE
ATLAS CENTAUR R/B 3.5 02:44:30 10° WNW 02:48:05 30° SW 02:55:31 10° SSE
Cosmos 2263 Rocket 3.2 02:43:40 10° NNW 02:49:11 53° ENE 02:54:37 10° SE
STARLINK-1201 4.0 02:45:33 10° WNW 02:49:28 41° SW 02:53:21 10° SSE
Cosmos 841 Rocket 3.9 02:44:40 10° SW 02:49:48 52° WNW 02:54:55 10° NNE
Cosmos 2322 Rocket 4.1 02:45:32 10° SSE 02:50:06 26° ESE 02:54:41 10° NE
STARLINK-1378 4.2 02:46:47 10° W 02:50:08 40° NNW 02:53:30 10° NE
STARLINK-1329 4.3 02:47:18 10° W 02:50:40 40° NNW 02:54:02 10° NE
Cosmos 372 Rocket 3.9 02:45:40 10° NNW 02:50:46 69° WSW 02:55:52 10° S
STARLINK-1365 4.3 02:48:04 10° W 02:51:24 38° NNW 02:54:44 10° NE
STARLINK-1240 4.3 02:47:43 10° NW 02:51:50 60° NNE 02:55:56 10° ESE
STARLINK-1379 4.3 02:49:01 10° W 02:52:22 39° NNW 02:55:43 10° NE
STARLINK-1362 4.3 02:49:36 10° W 02:52:58 39° NNW 02:56:20 10° NE
Cosmos 1892 3.3 02:49:28 10° S 02:53:14 57° E 02:57:00 10° NNE
COBE Rocket 4.5 02:49:12 10° SSW 02:53:45 39° W 02:58:28 10° NNW
STARLINK-1206 4.1 02:50:34 10° WNW 02:54:25 38° SW 02:58:15 10° SSE
Cosmos 1869 3.2 02:51:07 10° N 02:55:01 80° W 02:58:53 10° S
STARLINK-1373 4.3 02:51:56 10° W 02:55:16 38° NNW 02:58:38 10° NE
Cosmos 1400 Rocket 3.7 02:51:52 10° NNW 02:55:31 31° W 02:59:11 10° SSW
Cosmos 2221 2.5 02:52:06 10° NNW 02:56:24 68° W 03:00:42 10° S
PSLV R/B 4.3 02:52:34 10° NNE 02:56:43 52° E 03:00:48 10° S
STARLINK-1216 4.2 02:52:41 10° NW 02:56:50 65° NNE 03:00:56 10° ESE
STARLINK-1390 4.4 02:54:01 10° W 02:57:20 37° NNW 03:00:40 10° NE
Cosmos 2184 Rocket 4.4 02:52:58 10° SSW 02:58:51 45° WNW 03:04:45 10° N
SL-08 R/B 4.5 02:55:36 10° SSW 02:59:21 23° W 03:03:04 10° NW
STARLINK-1205 4.2 02:55:35 10° WNW 02:59:22 35° SW 03:03:08 10° SSE
CZ-4C R/B 3.6 02:56:16 10° S 02:59:38 39° W 03:03:04 10° NNW
